Weather History for St. Johns, AZ

Change the Weather History Date:

Tuesday, April 16, 2013

  Actual Average (KSOW) Record (KSOW)
Temperature  
Mean Temperature 48 °F -  
Max Temperature 64 °F 59 °F 78 °F (1984)
Min Temperature 32 °F 40 °F 13 °F (1970)
Degree Days  
Heating Degree Days 17    
Moisture  
Dew Point 20 °F    
Average Humidity 25    
Maximum Humidity 53    
Minimum Humidity 8    
Precipitation  
Precipitation 0.00 in - - ()
Sea Level Pressure  
Sea Level Pressure 29.57 in    
Wind  
Wind Speed 15 mph (SSW)    
Max Wind Speed 30 mph    
Max Gust Speed 47 mph    
Visibility 10 miles    
Events      
Averages and records for this station are not official NWS values.
T = Trace of Precipitation, MM = Missing Value Source: NWS Daily Summary

Daily Weather History Graph

Daily Weather History Graph

Search for Another Location

Airport:

Trip Planner

Search our weather history database for the weather conditions in past years. The results will help you decide how hot, cold, wet, or windy it might be!

Date:

Astronomy

Apr. 16, 2013 Rise Set
Actual Time 5:44 AM MST 6:50 PM MST
Civil Twilight 5:18 AM MST 7:16 PM MST
Nautical Twilight 4:47 AM MST 7:47 PM MST
Astronomical Twilight 4:15 AM MST 8:19 PM MST
Moon 10:12 AM MST (4/16) No Moon Set
Length of Visible Light 13h 58m
Length of Day
13h 06m
Waxing Crescent, 34% of the Moon is Illuminated
Apr 16
Waxing Crescent
Apr 18
First Quarter
Apr 25
Full
May 2
Last Quarter
May 9
New

Hourly Weather History & Observations

Time (MST) Temp. Dew Point Humidity Pressure Visibility Wind Dir Wind Speed Gust Speed Precip Events Conditions
12:54 AM 55.9 °F 26.1 °F 32% 29.57 in 10.0 mi Variable 5.8 mph - N/A   Clear
1:54 AM 54.0 °F 27.0 °F 35% 29.57 in 10.0 mi Calm Calm - N/A   Clear
2:54 AM 53.1 °F 28.9 °F 40% 29.57 in 10.0 mi SSW 9.2 mph - N/A   Clear
3:54 AM 52.0 °F 27.0 °F 38% 29.56 in 10.0 mi SSW 11.5 mph 17.3 mph N/A   Clear
4:54 AM 53.6 °F 24.8 °F 33% 29.76 in 10.0 mi SW 12.7 mph 23.0 mph N/A   Clear
5:54 AM 55.0 °F 21.9 °F 28% 29.55 in 10.0 mi SSW 19.6 mph 25.3 mph N/A   Clear
6:54 AM 57.0 °F 21.0 °F 25% 29.58 in 10.0 mi South 19.6 mph 25.3 mph N/A   Clear
7:54 AM 60.1 °F 21.9 °F 23% 29.58 in 10.0 mi South 24.2 mph 33.4 mph N/A   Clear
8:54 AM 63.0 °F 19.0 °F 18% 29.57 in 10.0 mi South 18.4 mph 32.2 mph N/A   Clear
9:54 AM 66.0 °F 19.0 °F 17% 29.57 in 10.0 mi SSW 23.0 mph 33.4 mph N/A   Clear
10:54 AM 69.1 °F 10.0 °F 10% 29.54 in 10.0 mi SSW 28.8 mph 43.7 mph N/A   Clear
11:54 AM 70.0 °F 10.0 °F 10% 29.54 in 10.0 mi South 26.5 mph 38.0 mph N/A   Clear
12:54 PM 71.1 °F 6.1 °F 8% 29.52 in 10.0 mi SW 25.3 mph 47.2 mph N/A   Clear
1:54 PM 71.1 °F 6.1 °F 8% 29.51 in 10.0 mi SW 27.6 mph 44.9 mph N/A   Clear
2:54 PM 71.1 °F 10.0 °F 9% 29.51 in 10.0 mi SSW 25.3 mph 39.1 mph N/A   Clear
3:54 PM 70.0 °F 12.0 °F 11% 29.51 in 10.0 mi SW 26.5 mph 46.0 mph N/A   Clear
4:54 PM 68.0 °F 12.9 °F 12% 29.52 in 10.0 mi SSW 24.2 mph 46.0 mph N/A   Clear
5:54 PM 64.9 °F 12.0 °F 13% 29.54 in 10.0 mi SSW 23.0 mph 43.7 mph N/A   Clear
6:54 PM 62.1 °F 15.1 °F 16% 29.54 in 10.0 mi SSW 12.7 mph 23.0 mph N/A   Clear
7:54 PM 57.9 °F 19.9 °F 23% 29.56 in 10.0 mi South 11.5 mph 18.4 mph N/A   Clear
8:54 PM 57.0 °F 26.1 °F 30% 29.56 in 10.0 mi South 11.5 mph 21.9 mph N/A   Clear
9:54 PM 55.9 °F 28.9 °F 36% 29.56 in 10.0 mi SSW 9.2 mph 23.0 mph N/A   Clear
10:54 PM 54.0 °F 30.9 °F 41% 29.56 in 10.0 mi SSW 12.7 mph 20.7 mph N/A   Clear
11:54 PM 52.0 °F 27.0 °F 38% 29.59 in 10.0 mi SW 8.1 mph 17.3 mph N/A   Clear